Weather History for Skagway, AK

Change the Weather History Date:

Monday, December 9, 2013

  Actual Average Record
Temperature  
Mean Temperature 28 °F -  
Max Temperature 30 °F 32 °F 46 °F (2005)
Min Temperature 26 °F 25 °F -2 °F (1966)
Degree Days  
Heating Degree Days 37    
Moisture  
Dew Point 25 °F    
Average Humidity 88    
Maximum Humidity 93    
Minimum Humidity 80    
Precipitation  
Precipitation 0.06 in - - ()
Sea Level Pressure  
Sea Level Pressure 30.36 in    
Wind  
Wind Speed 1 mph (NNE)    
Max Wind Speed 6 mph    
Max Gust Speed -    
Visibility 3 miles    
Events Snow    
Averages and records for this station are not official NWS values.
T = Trace of Precipitation, MM = Missing Value Source: NWS Daily Summary

Daily Weather History Graph

Daily Weather History Graph

Search for Another Location

Airport:

Trip Planner

Search our weather history database for the weather conditions in past years. The results will help you decide how hot, cold, wet, or windy it might be!

Date:

Astronomy

Dec. 09, 2013 Rise Set
Actual Time 8:46 AM AKST 3:00 PM AKST
Civil Twilight 7:51 AM AKST 3:55 PM AKST
Nautical Twilight 6:56 AM AKST 4:50 PM AKST
Astronomical Twilight 6:06 AM AKST 5:41 PM AKST
Moon 12:09 PM AKST (12/9) No Moon Set
Length of Visible Light 8h 04m
Length of Day
6h 14m
First Quarter, 52% of the Moon is Illuminated
Dec 9
First Quarter
Dec 17
Full
Dec 25
Last Quarter
Jan 1
New
Jan 7
First Quarter

Hourly Weather History & Observations

Time (AKST) Temp. Windchill Dew Point Humidity Pressure Visibility Wind Dir Wind Speed Gust Speed Precip Events Conditions
12:23 AM 26.6 °F - 21.2 °F 80% 30.45 in 2.5 mi Calm Calm - 0.00 in Snow Light Snow
12:32 AM 26.6 °F 22.6 °F 21.2 °F 80% 30.44 in 4.0 mi NNE 3.5 mph - 0.00 in   Haze
12:53 AM 26.1 °F - 21.0 °F 81% 30.44 in 10.0 mi Calm Calm - 0.00 in   Overcast
1:53 AM 26.1 °F - 21.9 °F 84% 30.43 in 4.0 mi Calm Calm - N/A   Overcast
2:49 AM 26.6 °F - 21.2 °F 80% 30.42 in 4.0 mi Calm Calm - 0.00 in Snow Light Snow
2:53 AM 26.1 °F 21.9 °F 21.9 °F 84% 30.42 in 4.0 mi NNE 3.5 mph - 0.00 in Snow Light Snow
3:04 AM 26.6 °F - 23.0 °F 86% 30.42 in 2.5 mi Calm Calm - 0.00 in Snow Light Snow
3:45 AM 26.6 °F - 21.2 °F 80% 30.40 in 1.8 mi Calm Calm - 0.00 in Snow Light Snow
3:53 AM 26.1 °F - 23.0 °F 88% 30.40 in 2.0 mi Calm Calm - 0.00 in Snow Light Snow
4:37 AM 26.6 °F - 23.0 °F 86% 30.38 in 1.8 mi Calm Calm - 0.00 in Snow Light Snow
4:53 AM 26.1 °F - 23.0 °F 88% 30.38 in 2.0 mi Calm Calm - 0.00 in Snow Light Snow
5:05 AM 26.6 °F 22.6 °F 23.0 °F 86% 30.38 in 3.0 mi NE 3.5 mph - 0.00 in Snow Light Snow
5:16 AM 26.6 °F - 23.0 °F 86% 30.37 in 2.0 mi Calm Calm - 0.00 in Snow Light Snow
5:24 AM 26.6 °F - 24.8 °F 93% 30.36 in 1.5 mi Calm Calm - 0.00 in Snow Light Snow
5:39 AM 26.6 °F - 24.8 °F 93% 30.37 in 1.5 mi Calm Calm - 0.00 in Snow Light Snow
5:53 AM 27.0 °F 21.6 °F 24.1 °F 89% 30.37 in 1.5 mi NE 4.6 mph - 0.00 in Snow Light Snow
6:17 AM 28.4 °F - 24.8 °F 86% 30.37 in 1.2 mi Calm Calm - 0.01 in Snow Light Snow
6:25 AM 26.6 °F 20.0 °F 24.8 °F 93% 30.36 in 1.2 mi NE 5.8 mph - 0.01 in Snow Light Snow
6:34 AM 28.4 °F - 24.8 °F 86% 30.36 in 1.2 mi Calm Calm - 0.01 in Snow Light Snow
6:53 AM 27.0 °F - 24.1 °F 89% 30.36 in 1.2 mi Calm Calm - 0.01 in Snow Light Snow
7:17 AM 26.6 °F 21.2 °F 24.8 °F 93% 30.34 in 1.5 mi NNE 4.6 mph - 0.00 in Snow Light Snow
7:26 AM 26.6 °F 22.6 °F 24.8 °F 93% 30.35 in 1.2 mi NNE 3.5 mph - 0.01 in Snow Light Snow
7:43 AM 28.4 °F 24.6 °F 24.8 °F 86% 30.35 in 1.5 mi Variable 3.5 mph - 0.01 in Snow Light Snow
7:53 AM 28.0 °F 21.7 °F 25.0 °F 88% 30.35 in 1.5 mi NE 5.8 mph - 0.01 in Snow Light Snow
8:16 AM 28.4 °F 23.3 °F 24.8 °F 86% 30.34 in 2.5 mi NNE 4.6 mph - 0.00 in Snow Light Snow
8:33 AM 28.4 °F 23.3 °F 24.8 °F 86% 30.35 in 1.8 mi NNE 4.6 mph - 0.00 in Snow Light Snow
8:53 AM 28.0 °F 22.8 °F 25.0 °F 88% 30.35 in 2.0 mi NE 4.6 mph - 0.01 in Snow Light Snow
9:43 AM 28.4 °F 23.3 °F 24.8 °F 86% 30.35 in 1.5 mi NNE 4.6 mph - 0.00 in Snow Light Snow
9:53 AM 28.0 °F 24.2 °F 25.0 °F 88% 30.35 in 2.0 mi NE 3.5 mph - 0.00 in Snow Light Snow
10:04 AM 28.4 °F - 26.6 °F 93% 30.35 in 1.2 mi Calm Calm - 0.00 in Snow Light Snow
10:17 AM 28.4 °F 23.3 °F 24.8 °F 86% 30.35 in 1.8 mi NE 4.6 mph - 0.00 in Snow Light Snow
10:27 AM 28.4 °F - 24.8 °F 86% 30.35 in 2.0 mi Calm Calm - 0.00 in Snow Light Snow
10:38 AM 28.4 °F - 26.6 °F 93% 30.34 in 1.8 mi Calm Calm - 0.00 in Snow Light Snow
10:53 AM 28.9 °F - 25.0 °F 85% 30.36 in 1.8 mi Calm Calm - 0.00 in Snow Light Snow
11:02 AM 28.4 °F - 26.6 °F 93% 30.36 in 1.0 mi Calm Calm - 0.00 in Snow Light Snow
11:19 AM 28.4 °F - 26.6 °F 93% 30.36 in 0.8 mi Calm Calm - 0.01 in Snow Light Snow
11:32 AM 28.4 °F - 26.6 °F 93% 30.34 in 1.0 mi Calm Calm - 0.01 in Snow Light Snow
11:53 AM 28.9 °F - 26.1 °F 89% 30.35 in 1.0 mi Calm Calm - 0.01 in Snow Light Snow
12:53 PM 28.9 °F 25.2 °F 26.1 °F 89% 30.35 in 1.2 mi NNE 3.5 mph - 0.01 in Snow Light Snow
1:32 PM 30.2 °F - 26.6 °F 86% 30.34 in 1.5 mi Calm Calm - 0.00 in Snow Light Snow
1:44 PM 30.2 °F - 28.4 °F 93% 30.34 in 1.0 mi Calm Calm - 0.00 in Snow Light Snow
1:50 PM 30.2 °F - 26.6 °F 86% 30.35 in 0.8 mi Calm Calm - 0.00 in Snow Light Snow
1:53 PM 30.0 °F - 27.0 °F 88% 30.35 in 1.0 mi Calm Calm - 0.00 in Snow Light Snow
2:09 PM 30.2 °F - 26.6 °F 86% 30.34 in 1.0 mi Calm Calm - 0.00 in Snow Light Snow
2:16 PM 30.2 °F - 26.6 °F 86% 30.34 in 1.0 mi Calm Calm - 0.00 in Snow Light Snow
2:53 PM 30.0 °F 26.5 °F 26.1 °F 85% 30.35 in 1.2 mi NNE 3.5 mph - 0.01 in Snow Light Snow
3:02 PM 28.4 °F - 26.6 °F 93% 30.35 in 1.8 mi Calm Calm - 0.00 in Snow Light Snow
3:11 PM 30.2 °F - 26.6 °F 86% 30.35 in 2.0 mi Calm Calm - 0.00 in Snow Light Snow
3:26 PM 30.2 °F - 26.6 °F 86% 30.35 in 2.0 mi Calm Calm - 0.00 in Snow Light Snow
3:34 PM 30.2 °F - 26.6 °F 86% 30.35 in 2.0 mi Calm Calm - 0.00 in Snow Light Snow
3:42 PM 30.2 °F - 26.6 °F 86% 30.35 in 1.5 mi Calm Calm - 0.00 in Snow Light Snow
3:53 PM 28.9 °F - 27.0 °F 92% 30.35 in 2.0 mi Calm Calm - 0.00 in Snow Light Snow
4:18 PM 30.2 °F - 28.4 °F 93% 30.36 in 3.0 mi Calm Calm - 0.00 in Snow Light Snow
4:35 PM 30.2 °F - 28.4 °F 93% 30.36 in 2.0 mi Calm Calm - 0.00 in Snow Light Snow
4:53 PM 28.9 °F - 26.1 °F 89% 30.36 in 2.5 mi Calm Calm - 0.00 in Snow Light Snow
5:27 PM 28.4 °F - 24.8 °F 86% 30.35 in 2.5 mi Calm Calm - 0.00 in Snow Light Snow
5:34 PM 28.4 °F - 26.6 °F 93% 30.35 in 3.0 mi Calm Calm - 0.00 in   Overcast
5:53 PM 28.0 °F - 25.0 °F 88% 30.35 in 6.0 mi Calm Calm - 0.00 in   Overcast
6:09 PM 28.4 °F - 26.6 °F 93% 30.35 in 4.0 mi Calm Calm - N/A   Overcast
6:38 PM 28.4 °F 24.6 °F 24.8 °F 86% 30.35 in 3.0 mi NE 3.5 mph - 0.00 in   Overcast
6:53 PM 28.0 °F - 25.0 °F 88% 30.35 in 5.0 mi Calm Calm - 0.00 in   Overcast
7:36 PM 26.6 °F 22.6 °F 24.8 °F 93% 30.35 in 6.0 mi NE 3.5 mph - N/A   Overcast
7:53 PM 27.0 °F - 24.1 °F 89% 30.35 in 8.0 mi Calm Calm - N/A   Overcast
8:53 PM 28.0 °F - 26.1 °F 92% 30.35 in 6.0 mi Calm Calm - N/A   Overcast
9:53 PM 28.0 °F 22.8 °F 25.0 °F 88% 30.34 in 10.0 mi NNE 4.6 mph - N/A   Overcast
10:53 PM 28.0 °F 24.2 °F 25.0 °F 88% 30.34 in 8.0 mi NNE 3.5 mph - N/A   Overcast
11:53 PM 28.0 °F 24.2 °F 25.0 °F 88% 30.32 in 8.0 mi NNE 3.5 mph - 0.00 in   Overcast